Theta_e
319 323 326 325 330 330 336 341 344 344 346 346 349 350 348 350 349 348 347 348 345 345 345 344 342 345 339 339 339 340 339 339 333 332 335 339 337 337 341 340 340 337 330
317 320 323 323 329 331 334 339 342 342 344 346 333 337 346 342 337 341 342 345 344 345 344 344 342 341 341 342 341 339 337 337 333 329 332 333 337 339 338 335 337 342 337
316 316 321 321 325 327 331 337 342 342 344 333 328 325 322 324 325 329 339 343 343 345 344 343 342 342 340 340 336 335 336 335 332 330 328 333 334 336 336 336 335 336 338
314 312 318 320 324 322 328 334 338 340 335 323 323 323 324 320 320 331 340 341 340 341 342 340 339 338 336 336 335 334 334 332 330 328 329 329 330 332 335 331 330 333 333
309 310 314 320 322 322 323 328 334 326 324 328 322 323 331 321 330 334 334 334 337 337 338 337 337 329 322 323 328 328 326 323 326 325 325 327 327 326 328 329 328 329 331
307 308 311 315 318 319 320 320 317 321 319 323 329 322 322 333 316 316 327 332 334 332 330 331 327 321 319 315 314 314 319 324 322 322 321 320 323 327 328 328 327 324 320
304 307 309 310 313 317 317 317 317 318 325 328 326 326 326 325 310 310 318 331 332 331 330 331 324 324 322 327 314 311 311 309 314 325 323 324 327 329 330 329 328 326 324
301 304 306 309 309 314 316 316 317 316 320 329 328 327 327 324 306 307 314 332 332 333 331 329 326 325 323 323 323 323 325 327 323 320 321 324 327 334 333 331 327 328 327
302 302 304 308 308 310 315 316 318 314 315 330 331 330 328 316 302 306 319 331 328 328 328 328 328 326 305 305 321 320 321 324 323 314 307 306 305 307 313 328 328 322 321
301 302 304 307 307 307 314 315 315 315 314 321 331 330 320 320 300 304 320 325 325 324 326 327 309 319 307 303 319 321 320 322 326 327 326 322 311 320 306 327 331 322 322
299 303 303 304 305 310 308 318 313 314 315 317 324 331 326 318 309 300 307 322 322 321 321 323 323 304 299 299 299 318 319 320 322 325 322 323 330 336 334 328 333 328 324
297 298 301 303 304 307 307 313 316 312 311 312 319 322 326 318 307 299 299 307 310 319 319 321 314 299 299 295 298 306 298 303 322 321 320 323 331 333 335 334 331 335 333
296 295 296 301 302 304 305 307 313 313 310 310 315 319 323 318 312 301 298 298 299 317 319 301 298 294 296 298 296 295 293 311 318 320 319 324 332 334 332 331 333 335 331
295 295 296 297 301 304 303 307 310 312 312 312 313 315 319 319 314 309 306 304 300 305 307 313 308 304 299 303 303 303 312 320 320 320 320 329 334 332 330 331 329 329 326
297 295 295 296 298 300 302 304 309 314 313 312 313 314 313 316 317 310 309 311 312 309 312 315 314 314 313 315 316 315 315 317 319 321 321 325 331 330 328 330 329 327 325
296 295 295 296 296 298 301 303 299 298 298 301 302 310 315 307 305 303 301 304 304 300 310 312 312 315 316 316 316 318 320 317 321 323 324 328 330 328 327 329 328 327 324
296 295 295 296 297 298 301 303 304 301 296 296 297 296 299 306 300 300 299 299 298 298 311 312 315 316 314 314 316 317 316 319 323 322 322 325 329 328 319 326 326 325 324
297 295 297 296 299 300 300 304 304 305 304 307 298 299 298 298 298 297 295 298 302 302 313 314 312 312 312 311 313 314 317 318 323 322 324 326 328 327 325 324 325 325 325
299 298 299 299 299 300 301 303 304 305 305 304 308 298 295 294 293 292 292 312 309 309 312 313 312 311 312 313 313 315 317 319 321 323 324 325 328 327 325 325 324 311 314
301 295 297 300 300 301 301 302 303 303 303 303 303 306 301 302 306 307 307 310 313 312 313 312 311 311 311 312 315 315 316 318 323 325 325 325 328 327 325 324 323 322 321
302 302 296 301 301 301 301 301 302 302 302 301 302 304 289 306 307 308 308 309 310 311 313 313 312 312 314 314 314 316 317 319 322 326 325 325 327 326 325 325 324 324 323
304 302 302 303 301 301 302 303 302 302 302 303 302 303 291 306 310 310 310 310 311 312 313 313 311 312 315 316 316 316 319 322 326 325 326 327 327 326 325 324 323 323 321
305 306 306 304 304 299 301 302 302 302 302 302 305 306 306 306 308 310 311 311 312 312 312 312 312 313 315 317 320 320 319 322 326 327 326 326 326 325 325 323 323 322 321
296 302 306 307 306 304 305 304 304 299 303 303 305 305 307 308 310 311 311 313 312 313 314 313 313 315 316 317 319 323 327 328 328 328 329 327 326 318 324 322 322 320 318
290 292 294 298 301 306 307 307 308 309 307 307 309 310 310 312 311 311 312 313 316 315 317 317 316 316 316 318 322 325 314 297 317 310 328 327 324 322 322 322 321 318 315
287 287 288 291 292 295 298 301 309 311 310 310 311 312 312 313 314 315 316 316 315 316 318 319 320 321 319 321 321 311 297 292 304 294 323 327 323 323 322 322 321 318 315
Wind_Speed
14 14 11 15 16 14 16 19 16 18 20 18 22 25 25 20 20 20 18 17 16 13 12 10 9 8 4 4 4 4 4 4 6 4 3 3 1 2 3 2 3 4 3
15 12 11 16 16 13 14 18 18 17 20 23 6 7 19 14 6 17 17 17 15 13 12 10 10 7 7 6 4 5 6 5 5 8 5 2 4 3 2 3 3 4 3
15 15 8 15 13 15 16 13 17 18 20 5 5 11 7 9 11 20 15 11 14 12 11 10 8 7 7 4 6 7 5 4 4 3 3 2 3 3 4 4 4 4 3
14 14 11 11 11 13 15 13 17 19 8 8 5 12 10 6 10 27 16 8 10 11 10 8 8 8 8 8 6 4 2 2 3 3 4 4 4 6 4 3 4 4 4
15 20 14 10 10 12 14 14 17 10 12 13 11 6 11 16 20 23 10 7 7 13 9 10 9 8 11 8 4 3 3 1 3 3 4 2 4 3 3 3 4 2 3
20 17 18 18 12 10 11 11 14 11 9 14 18 21 20 21 24 17 11 9 8 10 9 7 8 10 9 8 5 5 5 3 4 2 4 4 5 3 2 2 2 0 2
21 21 19 18 19 9 7 8 15 19 16 16 18 23 22 11 22 16 15 10 9 9 9 7 8 6 8 6 8 7 5 9 9 5 5 5 6 5 4 3 3 3 4
20 22 20 19 19 16 4 4 3 11 16 7 7 8 10 6 20 19 17 12 10 9 8 8 7 7 6 4 3 3 4 7 8 6 8 9 9 8 5 4 5 2 2
20 18 20 21 19 18 8 9 3 7 16 5 5 6 10 8 11 21 16 10 10 9 8 7 6 4 10 8 3 4 6 6 6 8 6 6 7 8 6 2 4 3 2
19 19 20 18 18 17 14 9 9 3 13 13 3 6 11 12 7 18 14 10 9 7 6 6 7 4 5 9 5 4 5 5 5 5 5 5 8 9 10 9 6 4 3
16 16 16 18 17 18 9 9 7 7 5 12 9 4 11 13 9 9 13 12 9 6 5 4 4 13 10 7 7 5 5 2 4 4 5 5 6 4 5 6 6 4 3
15 15 18 15 14 13 8 11 9 10 4 5 12 5 7 11 15 9 10 12 8 9 6 7 5 9 9 7 6 9 4 3 3 4 6 5 6 5 4 5 5 5 5
14 14 15 16 14 11 9 11 8 9 11 6 12 5 2 4 5 13 12 10 11 3 4 9 14 13 12 7 10 5 3 4 5 6 7 4 4 4 3 2 5 5 3
14 13 12 13 12 13 9 9 8 9 10 15 12 7 4 5 7 10 7 5 9 3 2 4 3 1 1 4 2 6 5 6 7 6 5 3 2 3 4 4 4 3 2
10 11 10 9 12 10 10 8 8 10 9 11 12 10 8 6 4 7 11 7 6 7 5 2 1 2 3 5 6 7 5 6 7 5 5 4 4 4 4 4 3 3 3
8 7 7 6 7 9 9 9 5 3 11 9 10 13 9 7 14 11 17 17 16 15 5 6 7 8 9 8 7 6 5 7 6 4 3 3 5 5 4 4 4 7 5
5 5 4 6 6 8 10 9 8 3 9 1 14 10 8 8 10 20 19 17 18 14 8 9 8 9 5 4 5 5 5 5 7 6 5 3 5 5 4 5 6 3 4
6 4 2 4 4 7 6 6 5 5 3 5 4 6 8 9 8 15 20 15 5 3 10 10 5 3 4 6 7 7 5 5 4 4 4 3 5 5 4 4 5 6 5
1 2 2 3 4 4 5 5 6 5 5 5 3 5 7 10 12 10 1 13 12 10 8 8 6 6 7 8 9 9 9 6 4 5 4 4 6 4 5 5 5 6 6
2 3 1 0 1 1 3 1 1 3 2 3 5 2 6 4 3 3 5 5 7 8 9 9 8 8 9 10 10 10 10 6 4 4 4 4 4 6 7 7 5 3 4
2 1 2 2 2 5 3 3 3 2 3 6 8 8 5 4 9 9 8 7 7 8 7 7 7 8 10 12 12 11 10 8 5 5 4 6 6 7 6 5 5 5 5
3 1 3 2 3 1 4 4 3 3 4 5 11 12 6 6 8 9 11 11 10 9 7 6 8 9 11 12 11 11 8 5 5 5 6 7 6 6 5 5 5 6 8
7 7 2 1 2 4 4 4 5 7 8 7 7 9 7 5 12 10 10 11 10 10 10 11 12 12 13 10 7 6 8 6 7 6 7 7 7 7 6 6 6 8 9
12 11 8 4 2 4 4 5 5 6 7 6 7 6 7 12 10 9 8 8 11 11 13 12 13 15 12 12 9 7 3 4 4 5 9 9 9 8 7 9 11 11 6
14 13 12 11 10 6 4 5 8 8 10 11 12 13 13 11 10 11 10 11 8 9 9 13 12 15 19 16 7 9 8 8 7 6 7 8 10 12 10 8 10 9 12
14 14 12 11 11 11 9 10 7 5 4 3 3 5 8 10 11 10 8 8 9 9 9 7 7 8 12 8 8 8 7 7 7 9 7 9 10 10 10 10 14 11 14
Wind_Direction
298 289 291 305 281 256 266 238 230 233 239 234 206 206 210 207 195 181 187 183 185 186 189 198 197 200 212 169 189 197 208 196 231 274 246 199 174 280 276 279 201 239 196
290 292 307 305 297 316 278 241 237 226 237 237 349 321 209 209 295 206 190 179 172 185 191 189 187 182 202 208 180 201 220 212 200 239 232 240 202 196 221 293 294 296 137
288 296 292 295 310 307 298 249 243 231 235 203 118 90 58 53 15 303 237 172 171 182 174 180 176 180 190 193 219 225 215 221 227 241 273 290 252 191 231 215 228 251 250
276 283 283 288 305 309 299 264 247 240 200 126 126 143 155 147 188 241 225 183 171 183 174 178 189 189 196 194 182 206 233 261 256 250 234 224 236 235 181 212 266 221 246
320 324 289 275 283 305 313 313 270 182 165 151 165 189 157 167 221 218 194 184 157 163 165 168 185 134 102 103 114 72 53 346 318 308 311 261 244 310 185 261 260 263 268
309 307 302 297 274 286 309 326 328 212 187 178 168 163 230 211 183 190 166 142 134 128 136 139 121 124 131 144 172 209 216 221 257 266 286 292 288 305 335 257 238 263 314
290 292 292 291 294 263 303 345 315 332 180 187 194 179 191 183 155 161 144 140 139 144 143 145 148 160 157 175 217 239 261 247 230 229 245 253 277 280 298 268 238 217 202
276 278 281 281 281 281 220 265 31 299 313 172 176 169 161 151 159 155 149 144 146 140 131 135 134 116 106 82 31 314 247 228 225 213 217 244 249 265 255 241 248 193 259
260 263 276 280 274 288 246 233 237 321 329 211 166 158 147 139 186 152 144 146 134 133 139 129 137 141 118 129 194 258 277 283 283 262 250 277 277 244 219 283 206 173 248
255 259 257 266 287 268 273 225 218 250 311 315 218 168 143 148 204 150 138 142 134 140 137 135 163 150 167 171 194 229 264 265 281 321 334 301 231 240 209 219 213 176 177
274 267 260 260 266 279 311 250 217 212 239 292 295 225 146 145 165 180 145 137 143 146 146 150 179 202 200 176 195 223 233 307 313 305 296 280 282 236 210 204 211 167 179
267 266 269 253 258 270 253 283 200 190 232 304 296 292 164 163 154 186 142 121 125 169 176 181 129 147 161 169 177 228 233 235 257 264 268 268 274 246 217 167 172 214 200
252 256 256 264 250 250 284 266 253 195 184 216 246 237 157 143 156 178 171 157 116 127 91 114 138 154 159 178 233 262 252 239 240 250 254 256 237 259 137 198 206 187 171
237 233 246 252 244 242 245 273 257 216 192 195 241 224 186 161 188 186 181 149 107 137 127 143 114 57 257 261 254 207 224 225 232 238 256 260 229 241 200 198 200 167 158
242 218 221 233 234 244 247 247 250 236 215 207 216 228 209 170 112 229 171 174 165 183 145 150 206 197 241 238 237 234 222 229 237 223 243 247 248 233 203 183 180 167 213
218 195 210 212 224 236 237 232 241 169 310 188 207 213 233 172 145 176 215 170 163 161 168 188 206 214 216 224 228 228 215 216 216 218 219 229 242 236 208 187 183 214 198
88 154 187 209 217 225 218 214 222 82 70 147 130 108 81 218 199 169 205 169 176 150 183 203 209 209 221 244 254 230 246 243 207 199 204 220 250 227 198 194 230 177 197
58 104 197 203 240 215 251 212 232 262 182 190 92 111 113 101 118 175 156 134 143 191 190 192 197 218 244 262 262 266 253 241 215 187 171 219 248 223 208 208 201 204 201
54 153 250 195 266 224 230 236 228 240 265 346 154 51 74 88 89 76 268 177 179 185 193 199 192 213 228 239 246 254 254 249 224 170 166 205 232 207 219 223 199 211 213
38 57 69 152 305 122 55 323 313 191 205 275 324 232 142 110 132 173 205 237 203 199 193 197 204 224 237 247 246 242 247 237 170 164 176 211 230 221 221 221 206 146 222
23 101 318 259 189 179 164 177 177 206 191 240 264 286 335 229 182 194 202 220 232 235 223 210 212 230 224 227 243 245 241 220 191 143 178 217 219 231 221 182 169 179 157
306 285 297 213 218 251 198 163 178 205 205 224 217 258 295 305 277 219 213 216 220 232 239 236 240 252 241 239 224 236 239 185 145 166 214 231 220 224 186 172 153 148 144
328 333 270 222 82 150 181 189 212 212 217 224 236 221 228 271 252 225 230 227 219 217 222 230 238 237 244 256 242 251 252 180 165 184 208 220 216 203 164 141 140 147 163
2 2 350 332 209 192 206 210 216 208 212 228 249 250 246 222 226 242 232 258 219 219 220 223 223 235 232 246 234 220 168 140 168 204 221 220 219 187 162 151 154 163 137
10 9 7 2 358 348 293 223 230 207 202 215 215 214 213 220 218 217 222 231 235 223 219 212 215 219 237 236 221 190 182 183 211 222 226 217 174 157 146 139 146 143 138
10 8 5 4 4 358 0 353 340 291 214 173 232 254 222 205 212 221 227 229 226 237 223 214 220 239 215 220 227 200 193 202 217 223 228 167 170 157 154 152 157 151 152